GPS BIII-3

Last updated on Sat Aug 15 2026 00:02:49 GMT+0000 (Coordinated Universal Time)

1 45854U 20041A 26225.81237338 -.00000081 00000+0 00000+0 0 9993 2 45854 56.7070 26.7107 0066681 204.9910 327.6366 2.00557121 45193
UTC large
Height (km)
Speed (km/s)
/
Latitude / Longitude
Inclination (degrees)
Orbital Period (minutes)
Azimuth
Elevation
Range (km)
Doppler Factor

Next 0 passes for location: London (51.5072 / 0.1276)

No passes found over London.
GPS BIII-3